Watford City, ND

11:59 PM CST on December 15, 2019 (GMT -0600)
Watford City

Weather History for KS25 - October, 2019

Change the Weather History Date:

Saturday, October 5, 2019

  Actual Average (WUND) Record (WUND)
Temperature  
Mean Temperature 50 °F -  
Max Temperature 59 °F - - (-1)
Min Temperature 42 °F - - (-1)
Degree Days  
Heating Degree Days 14    
Moisture  
Dew Point 40 °F    
Average Humidity 78    
Maximum Humidity 100    
Minimum Humidity 34    
Precipitation  
Precipitation 0.00 in - - ()
Sea Level Pressure  
Sea Level Pressure 29.82 in    
Wind  
Wind Speed 10 mph (WNW)    
Max Wind Speed 26 mph    
Max Gust Speed 32 mph    
Visibility 10 miles    
Events      
Averages and records for this station are not official NWS values.
T = Trace of Precipitation, MM = Missing Value Source: NWS Daily Summary

Daily Weather History Graph

Daily Weather History Graph

Search for Another Location

Airport or City:

Astronomy

Oct. 05, 2019 Rise Set
Actual Time 7:57 AM CDT 7:24 PM CDT
Civil Twilight 7:26 AM CDT 7:55 PM CDT
Nautical Twilight 6:50 AM CDT 8:31 PM CDT
Astronomical Twilight 6:14 AM CDT 9:07 PM CDT
Moon 3:49 PM CDT (10/5) No Moon Set
Length of Visible Light 12h 28m
Length of Day
11h 27m
Waxing Crescent, 50% of the Moon is Illuminated
Oct 5
Waxing Crescent
Oct 13
Full
Oct 21
Last Quarter
Oct 27
New
Nov 4
First Quarter

Hourly Weather History & Observations

Time (CDT) Temp. Windchill Dew Point Humidity Pressure Visibility Wind Dir Wind Speed Gust Speed Precip Events Conditions
12:15 AM 46.4 °F - 46.4 °F 100% 29.82 in 10.0 mi Calm Calm - N/A   Overcast
12:35 AM 46.4 °F - 46.4 °F 100% 29.82 in 10.0 mi Calm Calm - N/A   Overcast
12:55 AM 46.4 °F - 46.4 °F 100% 29.81 in 10.0 mi Calm Calm - N/A   Overcast
1:15 AM 46.4 °F 44.3 °F 46.4 °F 100% 29.80 in 9.0 mi North 4.6 mph - N/A   Overcast
1:35 AM 46.4 °F 45.2 °F 46.4 °F 100% 29.80 in 10.0 mi NNW 3.5 mph - N/A   Overcast
1:55 AM 46.4 °F 44.3 °F 46.4 °F 100% 29.80 in 10.0 mi North 4.6 mph - N/A   Overcast
2:15 AM 46.4 °F 43.5 °F 46.4 °F 100% 29.80 in 8.0 mi North 5.8 mph - N/A   Overcast
2:35 AM 46.4 °F 44.3 °F 46.4 °F 100% 29.80 in 10.0 mi North 4.6 mph - N/A   Overcast
2:55 AM 46.4 °F 44.3 °F 46.4 °F 100% 29.80 in 8.0 mi NNW 4.6 mph - N/A   Overcast
3:15 AM 46.4 °F 41.5 °F 46.4 °F 100% 29.80 in 5.0 mi NW 10.4 mph 17.3 mph N/A   Overcast
3:35 AM 46.4 °F 40.7 °F 46.4 °F 100% 29.79 in 9.0 mi NW 12.7 mph 19.6 mph N/A   Overcast
3:55 AM 44.6 °F 38.4 °F 44.6 °F 100% 29.79 in 10.0 mi NW 12.7 mph - N/A   Overcast
4:15 AM 44.6 °F 38.8 °F 44.6 °F 100% 29.79 in 10.0 mi NW 11.5 mph - N/A   Overcast
4:35 AM 44.6 °F 38.4 °F 44.6 °F 100% 29.79 in 10.0 mi NW 12.7 mph 19.6 mph N/A   Overcast
4:55 AM 44.6 °F 39.2 °F 44.6 °F 100% 29.78 in 10.0 mi NW 10.4 mph 18.4 mph N/A   Overcast
5:15 AM 44.6 °F 38.1 °F 44.6 °F 100% 29.80 in 10.0 mi NW 13.8 mph - N/A   Overcast
5:35 AM 44.6 °F 39.2 °F 44.6 °F 100% 29.81 in 10.0 mi WNW 10.4 mph 18.4 mph N/A   Overcast
5:55 AM 42.8 °F 36.2 °F 42.8 °F 100% 29.82 in 10.0 mi NW 12.7 mph - N/A   Overcast
6:15 AM 42.8 °F 37.5 °F 42.8 °F 100% 29.82 in 9.0 mi NW 9.2 mph - N/A   Light Drizzle
6:35 AM 42.8 °F 35.8 °F 42.8 °F 100% 29.83 in 10.0 mi WNW 13.8 mph - N/A   Mostly Cloudy
6:55 AM 42.8 °F 37.0 °F 42.8 °F 100% 29.84 in 9.0 mi West 10.4 mph - N/A   Light Drizzle
7:15 AM 42.8 °F 37.0 °F 42.8 °F 100% 29.84 in 5.0 mi West 10.4 mph - N/A   Light Drizzle
7:35 AM 42.8 °F 36.6 °F 42.8 °F 100% 29.84 in 6.0 mi West 11.5 mph - N/A   Overcast
7:55 AM 42.8 °F 37.0 °F 42.8 °F 100% 29.83 in 9.0 mi West 10.4 mph - N/A   Mostly Cloudy
8:15 AM 42.8 °F 36.6 °F 42.8 °F 100% 29.83 in 10.0 mi West 11.5 mph 17.3 mph N/A   Partly Cloudy
8:35 AM 42.8 °F 36.6 °F 42.8 °F 100% 29.83 in 10.0 mi West 11.5 mph - N/A   Clear
8:55 AM 42.8 °F 36.2 °F 42.8 °F 100% 29.84 in 10.0 mi West 12.7 mph - N/A   Clear
9:15 AM 42.8 °F 36.2 °F 42.8 °F 100% 29.84 in 10.0 mi West 12.7 mph 19.6 mph N/A   Clear
9:35 AM 42.8 °F 35.4 °F 42.8 °F 100% 29.83 in 10.0 mi West 15.0 mph - N/A   Partly Cloudy
9:55 AM 42.8 °F 36.2 °F 42.8 °F 100% 29.84 in 10.0 mi WNW 12.7 mph 18.4 mph N/A   Scattered Clouds
10:15 AM 42.8 °F 35.4 °F 42.8 °F 100% 29.84 in 10.0 mi West 15.0 mph 21.9 mph N/A   Partly Cloudy
10:35 AM 42.8 °F 35.4 °F 42.8 °F 100% 29.84 in 10.0 mi West 15.0 mph 23.0 mph N/A   Clear
10:55 AM 42.8 °F 35.1 °F 42.8 °F 100% 29.84 in 10.0 mi WNW 16.1 mph 24.2 mph N/A   Scattered Clouds
11:15 AM 44.6 °F 37.4 °F 42.8 °F 93% 29.84 in 10.0 mi WNW 16.1 mph 23.0 mph N/A   Partly Cloudy
11:35 AM 46.4 °F 40.1 °F 42.8 °F 87% 29.85 in 10.0 mi West 15.0 mph - N/A   Clear
11:55 AM 46.4 °F 39.5 °F 42.8 °F 87% 29.85 in 10.0 mi West 17.3 mph - N/A   Clear
12:15 PM 48.2 °F - 42.8 °F 82% 29.85 in 10.0 mi West 16.1 mph 23.0 mph N/A   Scattered Clouds
12:35 PM 48.2 °F - 42.8 °F 82% 29.85 in 10.0 mi West 17.3 mph - N/A   Mostly Cloudy
12:55 PM 48.2 °F - 42.8 °F 82% 29.85 in 10.0 mi West 18.4 mph - N/A   Scattered Clouds
1:15 PM 50.0 °F - 42.8 °F 76% 29.85 in 10.0 mi West 17.3 mph - N/A   Scattered Clouds
1:55 PM 55.4 °F - 41.0 °F 58% 29.85 in 10.0 mi West 16.1 mph - N/A   Partly Cloudy
2:15 PM 55.4 °F - 41.0 °F 58% 29.84 in 10.0 mi WNW 17.3 mph 24.2 mph N/A   Partly Cloudy
2:35 PM 55.4 °F - 39.2 °F 54% 29.84 in 10.0 mi West 18.4 mph 26.5 mph N/A   Clear
2:55 PM 57.2 °F - 39.2 °F 51% 29.83 in 10.0 mi West 21.9 mph 28.8 mph N/A   Clear
3:15 PM 57.2 °F - 39.2 °F 51% 29.83 in 10.0 mi West 23.0 mph 28.8 mph N/A   Clear
3:35 PM 57.2 °F - 37.4 °F 48% 29.82 in 10.0 mi West 20.7 mph 32.2 mph N/A   Clear
3:55 PM 59.0 °F - 35.6 °F 42% 29.82 in 10.0 mi West 24.2 mph - N/A   Clear
4:15 PM 59.0 °F - 33.8 °F 39% 29.81 in 10.0 mi West 20.7 mph 31.1 mph N/A   Clear
4:35 PM 59.0 °F - 32.0 °F 36% 29.80 in 10.0 mi West 19.6 mph 28.8 mph N/A   Clear
4:55 PM 59.0 °F - 30.2 °F 34% 29.81 in 10.0 mi West 26.5 mph 32.2 mph N/A   Clear
5:15 PM 59.0 °F - 32.0 °F 36% 29.80 in 10.0 mi West 19.6 mph 28.8 mph N/A   Clear
5:35 PM 57.2 °F - 32.0 °F 38% 29.80 in 10.0 mi West 23.0 mph 28.8 mph N/A   Clear
5:55 PM 57.2 °F - 32.0 °F 38% 29.81 in 10.0 mi West 20.7 mph 31.1 mph N/A   Clear
6:15 PM 57.2 °F - 33.8 °F 41% 29.81 in 10.0 mi West 18.4 mph 28.8 mph N/A   Clear
6:35 PM 55.4 °F - 33.8 °F 44% 29.81 in 10.0 mi West 17.3 mph 24.2 mph N/A   Clear
6:55 PM 53.6 °F - 33.8 °F 47% 29.81 in 10.0 mi West 16.1 mph - N/A   Partly Cloudy
7:15 PM 53.6 °F - 33.8 °F 47% 29.81 in 10.0 mi West 16.1 mph 25.3 mph N/A   Mostly Cloudy
7:35 PM 51.8 °F - 33.8 °F 50% 29.81 in 10.0 mi West 15.0 mph 21.9 mph N/A   Partly Cloudy
7:55 PM 50.0 °F - 33.8 °F 54% 29.82 in 10.0 mi West 12.7 mph - N/A   Clear
8:15 PM 50.0 °F - 33.8 °F 54% 29.83 in 10.0 mi West 15.0 mph 21.9 mph N/A   Partly Cloudy
8:35 PM 50.0 °F - 33.8 °F 54% 29.83 in 10.0 mi West 13.8 mph - N/A   Scattered Clouds
8:55 PM 50.0 °F - 35.6 °F 58% 29.83 in 10.0 mi West 12.7 mph 19.6 mph N/A   Scattered Clouds
9:15 PM 50.0 °F - 35.6 °F 58% 29.83 in 10.0 mi West 12.7 mph 18.4 mph N/A   Partly Cloudy
9:35 PM 48.2 °F - 35.6 °F 62% 29.84 in 10.0 mi West 11.5 mph - N/A   Clear
9:55 PM 46.4 °F 41.5 °F 35.6 °F 66% 29.85 in 10.0 mi West 10.4 mph - N/A   Clear
10:15 PM 44.6 °F 39.7 °F 35.6 °F 71% 29.85 in 10.0 mi West 9.2 mph 15.0 mph N/A   Clear
10:35 PM 46.4 °F 40.7 °F 35.6 °F 66% 29.85 in 10.0 mi West 12.7 mph 18.4 mph N/A   Clear
10:55 PM 46.4 °F 40.7 °F 35.6 °F 66% 29.85 in 10.0 mi West 12.7 mph - N/A   Clear
11:15 PM 46.4 °F 41.1 °F 37.4 °F 71% 29.85 in 10.0 mi West 11.5 mph - N/A   Scattered Clouds
11:35 PM 48.2 °F - 37.4 °F 66% 29.85 in 10.0 mi West 15.0 mph - N/A   Overcast
11:55 PM 46.4 °F 40.4 °F 37.4 °F 71% 29.86 in 10.0 mi West 13.8 mph - N/A   Overcast